HB3YKO-13 Weather Reports


time (UTC)temp
F
wind
direction
speed
knots
gust
knots
rain 1hr
in
rain 24hr
in
rain mn
in
humidity
%
barometer
mb
20260507041436 0 171 0.0 0.0 0.00 0.00 0.00 87
20260507040936 0 171 0.0 0.0 0.00 0.00 0.00 87
20260507040436 0 171 0.0 0.0 0.00 0.00 0.00 87
20260507035936 0 171 0.0 0.0 0.00 0.00 0.00 87
20260507035436 0 171 0.0 0.0 0.00 0.00 0.00 89
20260507034936 0 171 0.0 0.0 0.00 0.00 0.00 88
20260507034436 0 171 0.0 0.0 0.00 0.00 0.00 88
20260507033936 0 171 0.0 0.0 0.00 0.00 0.00 88
20260507033436 0 171 0.0 0.0 0.00 0.00 0.00 89
20260507032936 0 171 0.0 0.0 0.00 0.00 0.00 87
20260507032436 0 171 0.0 0.0 0.00 0.00 0.00 88
20260507031936 0 171 0.0 0.0 0.00 0.00 0.00 89
20260507031436 0 171 0.0 0.0 0.00 0.00 0.00 89
20260507030936 0 171 0.0 0.0 0.00 0.00 0.00 89
20260507030436 0 171 0.0 0.0 0.00 0.00 0.00 89
20260507025936 0 171 0.0 0.0 0.00 0.00 0.00 90
20260507025436 0 171 0.0 0.0 0.00 0.00 0.00 89
20260507024936 0 171 0.0 0.0 0.00 0.00 0.00 89
20260507024436 0 171 0.0 0.0 0.00 0.00 0.00 88
20260507023936 0 171 0.0 0.0 0.00 0.00 0.00 86
20260507023436 0 171 0.0 0.0 0.00 0.00 0.00 87
20260507022936 0 171 0.0 3.5 0.00 0.00 0.00 86
20260507022436 0 75 0.9 4.3 0.00 0.00 0.00 85
20260507021936 0 111 2.6 6.1 0.00 0.00 0.00 85
20260507021436 0 161 5.2 5.2 0.00 0.00 0.00 86
20260507020936 0 191 0.0 0.0 0.00 0.00 0.00 88
20260507020436 0 191 0.0 0.0 0.00 0.00 0.00 89
20260507015936 0 191 0.0 0.9 0.00 0.00 0.00 89
20260507015436 0 219 0.9 0.9 0.00 0.00 0.00 89
20260507014936 0 344 0.0 0.0 0.00 0.00 0.00 89
20260507014436 0 344 0.0 0.0 0.00 0.00 0.00 89
20260507013936 0 344 0.0 0.0 0.00 0.00 0.00 89
20260507013436 0 344 0.0 0.0 0.00 0.00 0.00 89
20260507012936 0 344 0.0 0.0 0.00 0.00 0.00 89
20260507012437 0 344 0.0 0.0 0.00 0.00 0.00 89
20260507011936 0 344 0.0 0.0 0.00 0.00 0.00 89
20260507011436 0 344 0.0 0.0 0.00 0.00 0.00 89
20260507010936 0 344 0.0 0.0 0.00 0.00 0.00 88
20260507010436 0 344 0.0 0.0 0.00 0.00 0.00 88
20260507005936 0 344 0.0 0.0 0.00 0.00 0.00 88
20260507005436 0 344 0.0 0.0 0.00 0.00 0.00 90
20260507004936 0 344 0.0 0.0 0.00 0.00 0.00 89
20260507004436 0 344 0.0 0.0 0.00 0.00 0.00 89
20260507003936 0 344 0.0 0.0 0.00 0.00 0.00 88
20260507003436 0 344 0.0 0.9 0.00 0.00 0.00 88
20260507002936 0 271 0.0 0.0 0.00 0.00 0.00 88
20260507002436 0 271 0.0 1.7 0.00 0.00 0.00 87
20260507001936 0 281 0.0 0.0 0.00 0.00 0.00 88
20260507001436 0 281 0.0 0.0 0.00 0.00 0.00 89
20260507000936 0 281 0.0 0.0 0.00 0.00 0.00 89
20260507000436 0 281 0.0 0.0 0.00 0.00 0.00 89
20260506235936 0 281 0.0 0.0 0.00 0.00 0.00 89
20260506235436 0 281 0.0 0.0 0.00 0.00 0.00 90
20260506234936 0 281 0.0 0.0 0.00 0.00 0.00 90
20260506234436 0 281 0.0 0.0 0.00 0.00 0.00 89
20260506233936 0 281 0.0 0.9 0.00 0.00 0.00 88
20260506233436 0 267 0.9 2.6 0.00 0.00 0.00 88
20260506232936 0 260 0.0 0.0 0.00 0.00 0.00 89
20260506232436 0 260 0.0 0.0 0.00 0.00 0.00 90
20260506231936 0 293 0.0 3.5 0.00 0.00 0.00 89
20260506231436 0 250 0.0 4.3 0.00 0.00 0.00 88
20260506230936 0 278 3.5 4.3 0.00 0.00 0.00 87
20260506230436 0 271 0.9 1.7 0.00 0.00 0.00 87
20260506225936 0 132 0.0 0.0 0.00 0.00 0.00 89
20260506225436 0 132 0.0 0.0 0.00 0.00 0.00 88
20260506224936 0 132 0.0 0.0 0.00 0.00 0.00 88
20260506224436 0 132 0.0 0.0 0.00 0.00 0.00 88
20260506223936 0 132 0.0 2.6 0.00 0.00 0.00 89
20260506223436 0 39 0.0 5.2 0.00 0.00 0.00 89
20260506222936 0 45 0.0 7.8 0.00 0.00 0.00 89
20260506222436 0 158 3.5 7.0 0.00 0.00 0.00 89
20260506221936 0 133 6.1 7.8 0.00 0.00 0.00 89
20260506221436 0 149 6.1 7.8 0.00 0.00 0.00 88
20260506220936 0 147 1.7 2.6 0.00 0.00 0.00 87
20260506220436 0 126 0.9 2.6 0.00 0.00 0.00 86
20260506215936 0 205 0.0 0.0 0.00 0.00 0.00 85
20260506215436 0 205 0.0 1.7 0.00 0.00 0.00 85
20260506214936 0 192 1.7 2.6 0.00 0.00 0.00 85
20260506214437 0 46 0.0 6.1 0.00 0.00 0.00 83
20260506213937 0 56 0.0 5.2 0.00 0.01 0.00 84
20260506213437 0 14 0.0 3.5 0.00 0.01 0.00 84
20260506212937 0 347 0.9 7.8 0.00 0.01 0.00 81
20260506212437 0 135 0.0 4.3 0.00 0.01 0.00 83
20260506211937 0 354 1.7 5.2 0.00 0.01 0.00 83
20260506211437 0 9 0.0 0.9 0.00 0.01 0.00 83
20260506210937 0 46 0.0 0.0 0.00 0.01 0.00 83
20260506210437 0 46 0.0 2.6 0.00 0.01 0.00 82
20260506205937 0 344 0.0 0.0 0.00 0.01 0.00 82
20260506205437 0 344 0.0 0.0 0.00 0.01 0.00 81
20260506204937 0 344 0.0 0.0 0.00 0.01 0.00 80
20260506204437 0 344 0.0 0.9 0.00 0.01 0.00 80
20260506203937 0 358 0.9 2.6 0.00 0.01 0.00 81
20260506203437 0 347 1.7 2.6 0.00 0.01 0.00 80
20260506202937 0 264 0.0 0.0 0.00 0.01 0.00 81
20260506202437 0 358 0.0 1.7 0.00 0.01 0.00 81
20260506201937 0 1 0.0 3.5 0.00 0.01 0.00 81
20260506201437 0 345 2.6 3.5 0.00 0.01 0.00 79
20260506200937 0 98 0.0 0.0 0.00 0.01 0.00 79
20260506200437 0 98 0.0 0.0 0.00 0.01 0.00 79
20260506195937 0 98 0.0 0.0 0.00 0.01 0.00 78
20260506195437 0 98 0.0 0.0 0.00 0.01 0.00 78
20260506194937 0 98 0.0 0.0 0.00 0.01 0.00 78
20260506194437 0 98 0.0 0.0 0.00 0.01 0.00 77
20260506193937 0 98 0.0 0.0 0.00 0.01 0.00 76
20260506193437 0 98 0.0 0.0 0.00 0.01 0.00 76
20260506192937 0 98 0.0 0.0 0.00 0.01 0.00 75
20260506192437 0 98 0.0 0.0 0.00 0.01 0.00 74
20260506191937 0 98 0.0 1.7 0.00 0.01 0.00 74
20260506191437 0 160 0.0 0.0 0.00 0.01 0.00 75
20260506190937 0 160 0.0 0.0 0.00 0.01 0.00 74
20260506190437 0 160 0.0 0.9 0.00 0.01 0.00 74
20260506185937 0 216 0.0 0.0 0.00 0.01 0.00 73
20260506185437 0 216 0.0 0.0 0.00 0.01 0.00 73
20260506184937 0 216 0.0 0.0 0.00 0.01 0.00 72
20260506184437 0 216 0.0 0.0 0.00 0.01 0.00 72
20260506183937 0 216 0.0 0.0 0.00 0.01 0.00 73
20260506183437 0 216 0.0 0.0 0.00 0.01 0.00 72
20260506182937 0 216 0.0 1.7 0.00 0.01 0.00 72
20260506182437 0 240 0.0 2.6 0.00 0.01 0.00 70
20260506181937 0 154 0.0 0.9 0.00 0.01 0.00 70
20260506181437 0 174 0.0 0.0 0.00 0.01 0.00 69
20260506180937 0 174 0.0 2.6 0.00 0.01 0.00 68
20260506180437 0 45 0.0 0.0 0.00 0.01 0.00 68
20260506175937 0 45 0.0 0.0 0.00 0.01 0.00 68
20260506175437 0 45 0.0 0.0 0.00 0.01 0.00 68
20260506174937 0 45 0.0 0.0 0.00 0.01 0.00 67
20260506174437 0 45 0.0 0.0 0.00 0.01 0.00 66
20260506173937 0 45 0.0 0.0 0.00 0.01 0.00 66
20260506173437 0 45 0.0 1.7 0.00 0.01 0.00 65
20260506172937 0 12 0.0 1.7 0.00 0.01 0.00 65
20260506172437 0 70 0.9 1.7 0.00 0.01 0.00 64
20260506171937 0 4 0.0 2.6 0.00 0.01 0.00 62
20260506171437 0 150 0.9 5.2 0.00 0.01 0.00 62
20260506170937 0 99 1.7 3.5 0.00 0.01 0.00 62
20260506170437 0 14 0.0 2.6 0.00 0.01 0.00 63
20260506165937 0 59 0.0 3.5 0.00 0.01 0.00 63
20260506165437 0 104 0.0 4.3 0.00 0.01 0.00 63
20260506164937 0 25 0.0 6.1 0.00 0.01 0.00 62
20260506164437 0 75 0.0 5.2 0.00 0.01 0.00 64
20260506163937 0 66 0.9 5.2 0.00 0.01 0.00 63
20260506163437 0 160 4.3 5.2 0.00 0.01 0.00 62
20260506162937 0 149 0.9 5.2 0.00 0.01 0.00 62
20260506162437 0 125 1.7 5.2 0.00 0.01 0.00 63
20260506161937 0 191 2.6 6.1 0.00 0.01 0.00 62
20260506161437 0 250 0.0 2.6 0.00 0.01 0.00 65
20260506160937 0 12 0.9 4.3 0.00 0.01 0.00 66
20260506160437 0 2 0.0 1.7 0.00 0.01 0.00 67
20260506155937 0 82 0.0 5.2 0.00 0.01 0.00 65
20260506155437 0 70 0.0 1.7 0.00 0.01 0.00 67
20260506154937 0 91 0.9 4.3 0.00 0.01 0.00 66
20260506154437 0 45 0.9 7.0 0.00 0.01 0.00 63
20260506153937 0 118 2.6 4.3 0.00 0.01 0.00 67
20260506153437 0 68 0.9 7.0 0.00 0.01 0.00 62
20260506152937 0 95 1.7 10.4 0.00 0.01 0.00 64
20260506152437 0 112 2.6 6.1 0.00 0.01 0.00 64
20260506151937 0 90 4.3 7.0 0.00 0.01 0.00 63
20260506151437 0 119 2.6 6.1 0.00 0.01 0.00 63
20260506150937 0 129 1.7 3.5 0.00 0.01 0.00 63
20260506150438 0 30 0.0 7.0 0.00 0.01 0.00 64
20260506145938 0 61 0.0 5.2 0.00 0.01 0.00 65
20260506145438 0 307 2.6 9.6 0.00 0.01 0.00 66
20260506144938 0 156 7.8 12.2 0.00 0.01 0.00 68
20260506144438 0 92 2.6 12.2 0.00 0.01 0.00 70
20260506143938 0 123 6.1 11.3 0.00 0.01 0.00 69
20260506143438 0 300 4.3 13.0 0.00 0.01 0.00 70
20260506142938 0 156 7.8 10.4 0.00 0.01 0.00 69
20260506142438 0 97 3.5 13.0 0.00 0.01 0.00 70
20260506141938 0 144 2.6 12.2 0.00 0.01 0.00 70
20260506141438 0 118 4.3 13.0 0.00 0.01 0.00 70
20260506140938 0 115 4.3 14.8 0.00 0.01 0.00 72
20260506140438 0 123 3.5 11.3 0.00 0.01 0.00 70
20260506135938 0 90 0.0 7.8 0.00 0.01 0.00 72
20260506135438 0 354 2.6 8.7 0.00 0.01 0.00 72
20260506134938 0 119 3.5 9.6 0.00 0.01 0.00 71
20260506134438 0 112 5.2 10.4 0.00 0.01 0.00 69
20260506133938 0 132 4.3 9.6 0.00 0.01 0.00 71
20260506133438 0 101 3.5 8.7 0.00 0.01 0.00 68
20260506132938 0 50 0.9 7.0 0.00 0.01 0.00 68
20260506132438 0 151 1.7 6.1 0.00 0.01 0.00 67
20260506131938 0 30 0.0 5.2 0.00 0.01 0.00 69
20260506131438 0 132 2.6 7.8 0.00 0.01 0.00 69
20260506130938 0 75 1.7 7.0 0.00 0.01 0.00 69
20260506130438 0 91 2.6 7.0 0.00 0.01 0.00 71
20260506125938 0 161 0.9 9.6 0.00 0.01 0.00 71
20260506125438 0 132 3.5 9.6 0.00 0.01 0.00 71
20260506124938 0 70 4.3 8.7 0.00 0.01 0.00 72
20260506124438 0 102 3.5 15.6 0.00 0.01 0.00 73
20260506123938 0 153 7.0 12.2 0.00 0.01 0.00 75
20260506123438 0 167 3.5 12.2 0.00 0.01 0.00 76
20260506122938 0 130 5.2 8.7 0.00 0.01 0.00 76
20260506122438 0 126 5.2 14.8 0.00 0.01 0.00 77
20260506121938 0 59 4.3 8.7 0.00 0.01 0.00 75
20260506121438 0 151 7.0 9.6 0.00 0.01 0.00 74
20260506120938 0 156 2.6 8.7 0.00 0.01 0.00 75
20260506120438 0 42 3.5 11.3 0.00 0.01 0.00 70
20260506115938 0 80 5.2 9.6 0.00 0.01 0.00 71
20260506115438 0 253 2.6 10.4 0.00 0.01 0.00 75
20260506114938 0 358 2.6 10.4 0.00 0.01 0.00 74
20260506114438 0 81 3.5 7.8 0.00 0.01 0.00 75
20260506113938 0 63 2.6 10.4 0.00 0.01 0.00 80
20260506113438 0 187 7.0 10.4 0.00 0.01 0.00 79
20260506112938 0 122 1.7 8.7 0.00 0.01 0.00 79
20260506112438 0 101 3.5 7.0 0.00 0.01 0.00 82
20260506111938 0 74 1.7 7.0 0.00 0.01 0.00 81
20260506111438 0 67 3.5 8.7 0.00 0.01 0.00 83
20260506110938 0 82 4.3 7.8 0.00 0.01 0.00 79
20260506110438 0 189 0.9 8.7 0.00 0.01 0.00 83
20260506105938 0 180 2.6 5.2 0.00 0.01 0.00 85
20260506105439 0 68 1.7 4.3 0.00 0.01 0.00 86
20260506104938 0 191 1.7 8.7 0.00 0.01 0.00 86
20260506104438 0 73 1.7 6.1 0.00 0.01 0.00 87
20260506103938 0 54 0.9 2.6 0.00 0.01 0.00 87
20260506103438 0 19 0.9 6.1 0.00 0.01 0.00 86
20260506102938 0 158 1.7 4.3 0.00 0.01 0.00 87
20260506102438 0 11 0.9 2.6 0.00 0.01 0.00 83
20260506101938 0 47 0.9 1.7 0.00 0.01 0.00 83
20260506101438 0 0 0.0 0.0 0.00 0.01 0.00 84
20260506100938 0 0 0.0 2.6 0.00 0.01 0.00 85
20260506100438 0 243 0.9 2.6 0.00 0.01 0.00 85
20260506095938 0 28 0.0 0.9 0.00 0.01 0.00 86
20260506095438 0 36 0.0 1.7 0.00 0.01 0.00 90
20260506094938 0 11 0.9 1.7 0.00 0.01 0.00 90
20260506094438 0 91 0.0 2.6 0.00 0.01 0.00 91
20260506093938 0 227 0.0 0.0 0.00 0.01 0.00 91
20260506093438 0 227 0.0 2.6 0.00 0.01 0.00 90
20260506092938 0 113 0.0 2.6 0.00 0.01 0.00 91
20260506092438 0 202 0.9 3.5 0.00 0.01 0.00 91
20260506091938 0 78 0.0 3.5 0.00 0.01 0.00 91
20260506091438 0 177 0.0 3.5 0.00 0.01 0.00 91
20260506090939 0 201 1.7 4.3 0.00 0.01 0.00 92
20260506090438 0 80 0.9 2.6 0.00 0.01 0.00 92
20260506085938 0 46 0.0 0.9 0.00 0.01 0.00 92
20260506085438 0 91 0.9 2.6 0.00 0.01 0.00 92
20260506084938 0 63 0.0 2.6 0.00 0.01 0.00 92
20260506084438 0 22 0.0 4.3 0.00 0.01 0.00 85
20260506083938 0 255 1.7 6.1 0.00 0.01 0.00 85
20260506083438 0 164 6.1 6.1 0.00 0.01 0.00 92
20260506082938 0 163 1.7 8.7 0.00 0.01 0.00 87
20260506082438 0 146 1.7 6.1 0.00 0.01 0.00 87
20260506081938 0 111 0.9 9.6 0.00 0.01 0.00 86
20260506081438 0 127 1.7 7.0 0.00 0.01 0.00 91
20260506080938 0 98 4.3 9.6 0.00 0.01 0.00 91
20260506080439 0 135 1.7 12.2 0.00 0.01 0.00 91
20260506073439 0 146 0.0 7.8 0.00 0.01 0.00 86
20260506072939 0 149 1.7 6.1 0.00 0.01 0.00 86
20260506072439 0 161 1.7 7.8 0.00 0.01 0.00 85
20260506071939 0 78 0.0 3.5 0.00 0.01 0.00 86
20260506071439 0 146 0.0 0.9 0.00 0.01 0.00 86
20260506070939 0 105 0.0 2.6 0.00 0.01 0.00 86
20260506070439 0 113 0.0 2.6 0.00 0.01 0.00 87
20260506062439 0 52 0.0 1.7 0.00 0.01 0.00 87
20260506061939 0 46 0.0 0.9 0.00 0.01 0.00 87
20260506061439 0 233 0.0 0.9 0.00 0.01 0.00 88
20260506060939 0 233 0.0 0.0 0.00 0.01 0.00 92
20260506060439 0 233 0.0 1.7 0.00 0.01 0.00 92
20260506050939 0 260 0.0 0.0 0.00 0.01 0.00 91
20260506050439 0 260 0.0 0.0 0.00 0.01 0.00 91
20260506044939 0 260 0.0 0.0 0.00 0.01 0.00 92
20260506044439 0 260 0.0 0.0 0.00 0.01 0.00 91
20260506043939 0 260 0.0 0.0 0.00 0.01 0.00 91
20260506043439 0 260 0.0 0.0 0.00 0.01 0.00 92
20260506042939 0 260 0.0 0.0 0.00 0.01 0.00 91
20260506042439 0 260 0.0 0.0 0.00 0.01 0.00 92
20260506041939 0 260 0.0 0.0 0.00 0.01 0.00 91